Location: Allie Creek
(37.5926°N, 89.8526°W)
Time: 04:02:01
(UTC+00:00)

NOSS 2-2 (E) - Pass Details

Date: 26 September 2023
Orbit: 408 x 1757 km, 63.3° (Epoch: 29 November)

Event Time Altitude Azimuth Distance (km) Brightness Sun altitude
Rises 00:46:26 0° 204° (SSW) 2,612 7.0 -11.6°
Reaches altitude 10° 00:48:45 10° 200° (SSW) 1,614 5.9 -12.1°
Maximum altitude 00:52:08 58° 121° (ESE) 494 2.8 -12.7°
Drops below altitude 10° 00:55:13 10° 41° (NE) 1,474 5.2 -13.3°
Enters shadow 00:55:27 - 40° (NE) 1,571 5.4 -13.4°
